Weather History for Wink, TX

Change the Weather History Date:

Thursday, April 17, 2014

  Actual Average Record
Temperature  
Mean Temperature 64 °F -  
Max Temperature 80 °F 82 °F 99 °F (2006)
Min Temperature 48 °F 52 °F 39 °F (1999)
Degree Days  
Heating Degree Days 2    
Growing Degree Days 14 (Base 50)    
Moisture  
Dew Point 37 °F    
Average Humidity 39    
Maximum Humidity 66    
Minimum Humidity 20    
Precipitation  
Precipitation 0.00 in - - ()
Sea Level Pressure  
Sea Level Pressure 29.90 in    
Wind  
Wind Speed 14 mph (NE)    
Max Wind Speed 18 mph    
Max Gust Speed 25 mph    
Visibility 10 miles    
Events      
Averages and records for this station are not official NWS values.
T = Trace of Precipitation, MM = Missing Value Source: NWS Daily Summary

Daily Weather History Graph

Daily Weather History Graph

Search for Another Location

Airport:

Trip Planner

Search our weather history database for the weather conditions in past years. The results will help you decide how hot, cold, wet, or windy it might be!

Date:

Astronomy

Apr. 17, 2014 Rise Set
Actual Time 7:21 AM CDT 8:23 PM CDT
Civil Twilight 6:56 AM CDT 8:48 PM CDT
Nautical Twilight 6:26 AM CDT 9:18 PM CDT
Astronomical Twilight 5:56 AM CDT 9:49 PM CDT
Moon 11:03 PM CDT (4/17) 9:01 AM CDT (4/17)
Length of Visible Light 13h 51m
Length of Day
13h 01m
Waning Gibbous, 93% of the Moon is Illuminated
Apr 17
Waning Gibbous
Apr 22
Last Quarter
Apr 29
New
May 6
First Quarter
May 14
Full

Hourly Weather History & Observations

Time (CDT) Temp. Dew Point Humidity Pressure Visibility Wind Dir Wind Speed Gust Speed Precip Events Conditions
12:53 AM 59.0 °F 36.0 °F 42% 29.67 in 10.0 mi SE 17.3 mph - N/A   Clear
1:53 AM 57.9 °F 37.9 °F 47% 29.68 in 10.0 mi SE 17.3 mph - N/A   Clear
2:53 AM 57.0 °F 39.0 °F 51% 29.68 in 10.0 mi SE 13.8 mph - N/A   Clear
3:53 AM 55.9 °F 39.9 °F 55% 29.68 in 10.0 mi SSE 13.8 mph - N/A   Clear
4:53 AM 55.0 °F 39.9 °F 57% 29.74 in 10.0 mi West 8.1 mph - N/A   Clear
5:53 AM 52.0 °F 39.0 °F 61% 29.75 in 10.0 mi NNE 9.2 mph - N/A   Clear
6:53 AM 51.1 °F 39.0 °F 63% 29.79 in 10.0 mi NE 6.9 mph - N/A   Clear
7:53 AM 48.9 °F 37.9 °F 66% 29.86 in 10.0 mi NNW 5.8 mph - N/A   Clear
8:53 AM 55.9 °F 33.1 °F 42% 29.91 in 10.0 mi North 17.3 mph - N/A   Clear
9:53 AM 60.1 °F 30.9 °F 33% 29.93 in 10.0 mi NNW 17.3 mph - N/A   Clear
10:53 AM 64.4 °F 30.2 °F 28% 30.04 in 10.0 mi North 17.3 mph - N/A   Clear
11:53 AM 68.0 °F 30.2 °F 24% 30.06 in 10.0 mi NNW 16.1 mph 24.2 mph N/A   Clear
12:53 PM 73.0 °F 30.0 °F 20% 29.97 in 10.0 mi NNE 12.7 mph - N/A   Clear
1:53 PM 75.0 °F 34.0 °F 22% 29.96 in 10.0 mi North 8.1 mph 19.6 mph N/A   Clear
2:53 PM 77.0 °F 35.1 °F 22% 29.95 in 10.0 mi NNE 9.2 mph 19.6 mph N/A   Clear
3:53 PM 79.0 °F 36.0 °F 21% 29.94 in 10.0 mi NNE 17.3 mph - N/A   Clear
4:53 PM 79.0 °F 35.1 °F 20% 29.93 in 10.0 mi North - - N/A   Clear
5:53 PM 79.0 °F 35.1 °F 20% 29.93 in 10.0 mi ENE 8.1 mph 18.4 mph N/A   Clear
6:53 PM 77.0 °F 34.0 °F 21% 29.95 in 10.0 mi ENE 8.1 mph - N/A   Clear
7:53 PM 75.0 °F 34.0 °F 22% 29.96 in 10.0 mi ENE 9.2 mph - N/A   Clear
8:53 PM 71.1 °F 36.0 °F 28% 29.98 in 10.0 mi ENE 9.2 mph - N/A   Clear
9:53 PM 64.9 °F 45.0 °F 48% 30.01 in 10.0 mi ENE 17.3 mph 25.3 mph N/A   Clear
10:53 PM 62.1 °F 46.0 °F 56% 30.06 in 10.0 mi East 12.7 mph 21.9 mph N/A   Clear
11:53 PM 59.0 °F 46.0 °F 62% 30.08 in 10.0 mi East 18.4 mph 25.3 mph N/A   Clear